Location: Godiavel Galaoual
(15.2485°N, 12.6604°W)
Time: 12:41:58
(UTC+00:00)

deb Centaur AC-2 - Pass Details

Date: 27 February 2020
Orbit: 585 x 1364 km, 30.0° (Epoch: 29 March)

Event Time Altitude Azimuth Distance (km) Brightness Sun altitude
Rises 20:32:39 0° 238° (WSW) 2,814 8.4 -23.6°
Reaches altitude 10° 20:34:50 10° 236° (SW) 1,951 7.4 -24.1°
Enters shadow 20:39:03 73° 183° (S) 688 4.1 -25.1°
